Flag for U.S.A. Weather past 2 weeks in Syracuse, New York, U.S.A.

Now
55 °F

Partly sunny.


Feels Like: 53 °F
Forecast: 40 / 66 °F
Wind: 7 mph from East

Location: Syracuse Hancock International Airport

Current Time: Apr 19, 2015 at 12:27:42 PM

Latest Report: Apr 19, 2015 at 11:54 AM


Visibility: 10 mi

Pressure: 30.22 "Hg

Humidity: 42%

Dew point: 32 °F

Location of SyracuseLocation

Historic Weather in Syracuse — Graph

°F

Syracuse temperature yesterday

Maximum temperature yesterday: 71 °F (at 12:54 PM)
Minimum temperature yesterday: 45 °F (at 3:54 AM)
Average temperature yesterday: 57 °F

Past Weeks' High & Low Weather Summary

 TemperatureHumidityPressure
High80 °F (Apr 13, 2:54 PM)100% (Apr 8, 6:54 PM)30.44 "Hg (Apr 8, 6:54 PM)
Low30 °F (Apr 6, 1:54 AM)15% (Apr 16, 3:54 PM)29.58 "Hg (Apr 10, 1:54 PM)
Average47 °F63%30.12 "Hg
* Reported Apr 4 10:54 AM — Apr 19 10:54 AM, Syracuse, Weather by CustomWeather, © 2015

Note: Actual official high and low records may vary slightly from our data, if they occured in-between our weather recording intervals... More about our weather records

Advertising

Syracuse weather history for previous 24 hours

 ConditionsComfort  
Time TempWeatherWind HumidityBarometerVisibility
10:54 AM
Sun, Apr 19
51 °FPartly sunny.6 mph46%30.25 "Hg10 mi
9:54 AM48 °FScattered clouds.6 mph50%30.25 "Hg10 mi
8:54 AM44 °FScattered clouds.3 mph58%30.26 "Hg10 mi
7:54 AM42 °FPassing clouds.9 mph62%30.25 "Hg10 mi
6:54 AM39 °FPassing clouds.6 mph67%30.24 "Hg10 mi
5:54 AM39 °FClear.8 mph67%30.22 "Hg10 mi
4:54 AM40 °FClear.5 mph65%30.22 "Hg10 mi
3:54 AM40 °FClear.6 mph65%30.22 "Hg10 mi
2:54 AM41 °FClear.8 mph62%30.20 "Hg10 mi
1:54 AM43 °FClear.3 mph60%30.19 "Hg10 mi
12:54 AM44 °FClear.No wind55%30.18 "Hg10 mi
11:54 PM
Sat, Apr 18
47 °FClear.5 mph48%30.16 "Hg10 mi
10:54 PM49 °FClear.5 mph43%30.15 "Hg10 mi
9:54 PM51 °FPassing clouds.7 mph35%30.13 "Hg10 mi
8:54 PM52 °FPassing clouds.8 mph32%30.11 "Hg10 mi
7:54 PM56 °FPassing clouds.12 mph27%30.09 "Hg10 mi
6:54 PM62 °FPassing clouds.12 mph21%30.06 "Hg10 mi
5:54 PM65 °FPassing clouds.20 mph25%30.03 "Hg10 mi
4:54 PM67 °FPassing clouds.18 mph24%29.99 "Hg10 mi
3:54 PM68 °FPassing clouds.16 mph30%29.97 "Hg10 mi
2:54 PM67 °FScattered clouds.22 mph36%29.96 "Hg10 mi
1:54 PM68 °FPassing clouds.24 mph36%29.94 "Hg10 mi
12:54 PM71 °FScattered clouds.25 mph34%29.91 "Hg10 mi
Weather by CustomWeather, © 2015

See weather overviewHow to use our weather pages